QPF
0.28 0.22 0.16 0.16 0.13 0.14 0.15 0.13 0.08 0.05 0.04 0.03 0.03 0.04 0.06 0.07 0.05 0.05 0.05 0.04 0.05 0.06 0.08 0.11 0.15 0.13 0.09 0.06 0.06 0.05 0.04 0.04 0.06 0.07 0.07 0.10 0.08 0.07 0.07 0.06 0.05 0.05 0.03
0.18 0.14 0.12 0.13 0.11 0.10 0.09 0.10 0.09 0.10 0.08 0.06 0.05 0.04 0.06 0.07 0.05 0.04 0.06 0.06 0.05 0.06 0.09 0.12 0.16 0.16 0.11 0.09 0.08 0.06 0.05 0.05 0.05 0.05 0.09 0.15 0.12 0.08 0.09 0.07 0.04 0.04 0.04
0.11 0.11 0.10 0.11 0.11 0.09 0.09 0.09 0.09 0.10 0.07 0.06 0.06 0.07 0.06 0.05 0.04 0.04 0.04 0.05 0.04 0.04 0.06 0.09 0.12 0.13 0.13 0.11 0.10 0.09 0.06 0.07 0.07 0.07 0.06 0.08 0.12 0.10 0.08 0.06 0.04 0.03 0.03
0.08 0.08 0.07 0.08 0.09 0.08 0.09 0.10 0.10 0.09 0.08 0.08 0.07 0.08 0.08 0.08 0.05 0.04 0.03 0.03 0.04 0.04 0.06 0.08 0.11 0.11 0.13 0.15 0.14 0.11 0.08 0.06 0.08 0.10 0.09 0.08 0.09 0.10 0.05 0.03 0.03 0.03 0.03
0.07 0.07 0.07 0.07 0.08 0.09 0.11 0.08 0.07 0.09 0.10 0.09 0.07 0.08 0.08 0.08 0.07 0.04 0.02 0.02 0.03 0.03 0.06 0.07 0.08 0.09 0.09 0.12 0.15 0.14 0.13 0.09 0.07 0.08 0.08 0.07 0.06 0.06 0.04 0.03 0.02 0.02 0.02
0.05 0.07 0.06 0.05 0.06 0.08 0.10 0.09 0.11 0.11 0.11 0.11 0.07 0.06 0.07 0.05 0.05 0.05 0.03 0.04 0.04 0.03 0.04 0.06 0.08 0.07 0.06 0.07 0.07 0.09 0.11 0.11 0.08 0.07 0.07 0.06 0.06 0.06 0.05 0.03 0.02 0.02 0.02
0.04 0.05 0.04 0.05 0.05 0.06 0.08 0.10 0.11 0.11 0.10 0.10 0.10 0.08 0.06 0.03 0.03 0.03 0.03 0.04 0.04 0.03 0.04 0.06 0.07 0.08 0.09 0.08 0.07 0.07 0.08 0.10 0.10 0.08 0.06 0.05 0.05 0.05 0.04 0.02 0.02 0.02 0.02
0.03 0.03 0.05 0.04 0.04 0.05 0.07 0.09 0.10 0.10 0.10 0.10 0.12 0.10 0.07 0.05 0.04 0.02 0.01 0.01 0.02 0.03 0.04 0.04 0.05 0.08 0.11 0.11 0.09 0.09 0.12 0.13 0.14 0.14 0.12 0.11 0.09 0.07 0.05 0.03 0.02 0.01 0.01
0.02 0.03 0.04 0.04 0.04 0.05 0.08 0.10 0.08 0.09 0.09 0.09 0.11 0.13 0.09 0.07 0.05 0.03 0.02 0.02 0.03 0.05 0.05 0.05 0.05 0.07 0.07 0.08 0.11 0.10 0.09 0.11 0.11 0.14 0.15 0.15 0.13 0.10 0.09 0.07 0.05 0.02 0.01
0.02 0.02 0.04 0.05 0.06 0.05 0.07 0.08 0.06 0.07 0.08 0.09 0.09 0.10 0.09 0.08 0.08 0.07 0.04 0.04 0.06 0.06 0.05 0.03 0.03 0.04 0.05 0.07 0.08 0.06 0.05 0.05 0.07 0.09 0.11 0.14 0.16 0.15 0.12 0.09 0.07 0.05 0.03
0.02 0.02 0.05 0.06 0.07 0.06 0.06 0.07 0.08 0.07 0.08 0.09 0.11 0.11 0.11 0.10 0.09 0.08 0.08 0.09 0.08 0.07 0.05 0.04 0.04 0.05 0.05 0.06 0.05 0.03 0.03 0.04 0.05 0.06 0.07 0.09 0.12 0.15 0.15 0.13 0.10 0.07 0.05
0.04 0.04 0.05 0.07 0.07 0.07 0.08 0.09 0.08 0.08 0.08 0.09 0.10 0.10 0.10 0.10 0.09 0.12 0.13 0.11 0.10 0.09 0.05 0.05 0.06 0.07 0.08 0.07 0.05 0.02 0.02 0.03 0.04 0.04 0.05 0.07 0.08 0.10 0.14 0.17 0.17 0.16 0.12
0.05 0.05 0.05 0.06 0.06 0.08 0.08 0.08 0.09 0.10 0.10 0.10 0.10 0.10 0.09 0.10 0.09 0.11 0.13 0.13 0.11 0.09 0.08 0.09 0.09 0.09 0.09 0.08 0.07 0.04 0.03 0.02 0.03 0.03 0.04 0.04 0.06 0.07 0.09 0.13 0.21 0.28 0.25
0.03 0.03 0.04 0.05 0.05 0.06 0.06 0.07 0.07 0.09 0.10 0.10 0.11 0.11 0.10 0.08 0.07 0.07 0.08 0.12 0.12 0.12 0.12 0.11 0.10 0.11 0.11 0.11 0.09 0.05 0.03 0.04 0.03 0.04 0.04 0.04 0.05 0.05 0.07 0.10 0.13 0.18 0.24
0.02 0.03 0.02 0.02 0.03 0.05 0.06 0.08 0.08 0.09 0.08 0.06 0.07 0.08 0.08 0.08 0.07 0.07 0.08 0.09 0.13 0.13 0.12 0.10 0.09 0.09 0.10 0.10 0.09 0.08 0.07 0.05 0.03 0.03 0.04 0.05 0.05 0.05 0.06 0.09 0.11 0.12 0.15
0.03 0.03 0.02 0.02 0.03 0.04 0.06 0.08 0.08 0.08 0.07 0.07 0.09 0.08 0.08 0.07 0.08 0.07 0.07 0.07 0.08 0.08 0.07 0.07 0.06 0.06 0.07 0.05 0.04 0.05 0.06 0.06 0.03 0.03 0.03 0.04 0.04 0.04 0.06 0.07 0.08 0.08 0.10
0.02 0.02 0.02 0.03 0.04 0.04 0.05 0.07 0.08 0.07 0.07 0.08 0.07 0.08 0.11 0.11 0.09 0.07 0.06 0.06 0.05 0.06 0.06 0.07 0.05 0.05 0.05 0.05 0.04 0.03 0.03 0.03 0.03 0.03 0.02 0.03 0.03 0.04 0.04 0.04 0.05 0.06 0.06
0.02 0.02 0.02 0.03 0.03 0.04 0.05 0.05 0.06 0.07 0.09 0.09 0.08 0.09 0.09 0.08 0.06 0.05 0.05 0.05 0.04 0.04 0.04 0.05 0.05 0.04 0.04 0.04 0.04 0.04 0.04 0.04 0.06 0.04 0.03 0.02 0.03 0.03 0.03 0.03 0.04 0.04 0.04
0.03 0.03 0.03 0.04 0.04 0.05 0.05 0.05 0.06 0.09 0.10 0.09 0.08 0.08 0.07 0.07 0.07 0.05 0.04 0.04 0.03 0.02 0.03 0.04 0.04 0.03 0.02 0.02 0.03 0.03 0.03 0.05 0.07 0.07 0.04 0.03 0.03 0.03 0.03 0.03 0.03 0.02 0.02
0.03 0.04 0.03 0.04 0.05 0.04 0.03 0.04 0.05 0.10 0.12 0.13 0.11 0.08 0.07 0.06 0.07 0.06 0.04 0.03 0.03 0.03 0.03 0.03 0.04 0.03 0.02 0.02 0.05 0.06 0.05 0.05 0.04 0.03 0.03 0.03 0.04 0.03 0.02 0.01 0.01 0.01 0.02
0.04 0.05 0.05 0.04 0.03 0.02 0.03 0.04 0.05 0.07 0.08 0.10 0.12 0.11 0.07 0.05 0.05 0.05 0.04 0.05 0.04 0.04 0.03 0.03 0.04 0.02 0.02 0.03 0.03 0.02 0.03 0.03 0.02 0.02 0.02 0.01 0.01 0.01 0.01 0.00 0.00 0.01 0.01
0.04 0.05 0.05 0.04 0.02 0.02 0.02 0.02 0.04 0.05 0.07 0.08 0.11 0.11 0.08 0.06 0.05 0.04 0.04 0.04 0.05 0.05 0.04 0.03 0.03 0.03 0.02 0.02 0.02 0.02 0.02 0.02 0.02 0.01 0.02 0.02 0.01 0.01 0.01 0.00 0.00 0.00 0.00
0.04 0.06 0.06 0.07 0.05 0.04 0.04 0.03 0.03 0.04 0.07 0.07 0.08 0.08 0.06 0.06 0.06 0.04 0.04 0.03 0.04 0.05 0.05 0.05 0.05 0.05 0.04 0.04 0.04 0.03 0.03 0.03 0.03 0.03 0.02 0.02 0.02 0.02 0.01 0.00 0.00 0.00 0.00
0.04 0.06 0.07 0.09 0.10 0.10 0.09 0.07 0.06 0.05 0.06 0.07 0.07 0.06 0.06 0.05 0.03 0.03 0.03 0.03 0.03 0.04 0.04 0.04 0.04 0.04 0.05 0.06 0.05 0.05 0.05 0.05 0.04 0.03 0.03 0.03 0.03 0.02 0.02 0.01 0.02 0.01 0.01
0.03 0.05 0.06 0.07 0.07 0.07 0.07 0.06 0.05 0.04 0.04 0.05 0.06 0.06 0.06 0.06 0.05 0.05 0.04 0.05 0.05 0.05 0.05 0.04 0.04 0.04 0.05 0.04 0.05 0.06 0.06 0.05 0.05 0.05 0.04 0.05 0.05 0.04 0.04 0.04 0.04 0.03 0.02
0.03 0.05 0.05 0.03 0.02 0.01 0.02 0.03 0.03 0.02 0.02 0.02 0.03 0.04 0.05 0.04 0.05 0.06 0.05 0.04 0.04 0.04 0.05 0.05 0.05 0.05 0.04 0.03 0.03 0.05 0.05 0.06 0.06 0.06 0.05 0.05 0.06 0.06 0.06 0.06 0.05 0.04 0.03
MSLP
1017.12 1017.09 1016.94 1016.69 1016.39 1016.10 1015.87 1015.72 1015.67 1015.69 1015.76 1015.83 1015.87 1015.86 1015.79 1015.68 1015.57 1015.47 1015.43 1015.44 1015.52 1015.66 1015.84 1016.08 1016.35 1016.66 1017.01 1017.39 1017.80 1018.22 1018.62 1018.98 1019.28 1019.53 1019.73 1019.89 1020.04 1020.20 1020.38 1020.60 1020.84 1021.09 1021.33
1017.27 1017.19 1016.99 1016.71 1016.40 1016.10 1015.86 1015.72 1015.70 1015.76 1015.89 1016.03 1016.14 1016.21 1016.20 1016.13 1016.01 1015.86 1015.70 1015.57 1015.48 1015.45 1015.49 1015.60 1015.80 1016.08 1016.45 1016.88 1017.34 1017.82 1018.26 1018.65 1018.97 1019.22 1019.40 1019.55 1019.70 1019.87 1020.08 1020.33 1020.60 1020.89 1021.17
1017.49 1017.36 1017.14 1016.86 1016.55 1016.26 1016.04 1015.93 1015.93 1016.04 1016.22 1016.43 1016.62 1016.77 1016.83 1016.81 1016.69 1016.50 1016.25 1015.99 1015.73 1015.52 1015.38 1015.34 1015.42 1015.63 1015.96 1016.38 1016.85 1017.34 1017.81 1018.21 1018.53 1018.77 1018.95 1019.11 1019.28 1019.48 1019.73 1020.03 1020.35 1020.69 1020.99
1017.76 1017.61 1017.39 1017.12 1016.83 1016.57 1016.38 1016.30 1016.32 1016.46 1016.68 1016.95 1017.22 1017.44 1017.59 1017.63 1017.55 1017.35 1017.06 1016.69 1016.30 1015.92 1015.60 1015.39 1015.33 1015.42 1015.65 1016.00 1016.43 1016.89 1017.32 1017.70 1018.02 1018.26 1018.45 1018.63 1018.84 1019.09 1019.39 1019.74 1020.12 1020.49 1020.82
1018.05 1017.90 1017.69 1017.45 1017.20 1016.98 1016.82 1016.76 1016.79 1016.94 1017.18 1017.48 1017.81 1018.12 1018.36 1018.50 1018.50 1018.35 1018.06 1017.64 1017.16 1016.65 1016.18 1015.81 1015.58 1015.52 1015.62 1015.85 1016.18 1016.56 1016.94 1017.27 1017.55 1017.79 1017.99 1018.21 1018.46 1018.76 1019.13 1019.53 1019.94 1020.32 1020.64
1018.34 1018.20 1018.02 1017.82 1017.62 1017.44 1017.30 1017.23 1017.26 1017.39 1017.62 1017.94 1018.32 1018.71 1019.05 1019.31 1019.43 1019.38 1019.15 1018.77 1018.26 1017.68 1017.11 1016.60 1016.22 1016.00 1015.94 1016.03 1016.23 1016.50 1016.78 1017.04 1017.28 1017.49 1017.71 1017.95 1018.24 1018.59 1019.00 1019.43 1019.85 1020.21 1020.48
1018.63 1018.50 1018.36 1018.21 1018.05 1017.90 1017.77 1017.68 1017.67 1017.76 1017.96 1018.27 1018.67 1019.13 1019.58 1019.98 1020.25 1020.35 1020.25 1019.95 1019.49 1018.92 1018.30 1017.71 1017.22 1016.86 1016.66 1016.60 1016.66 1016.79 1016.96 1017.14 1017.32 1017.50 1017.70 1017.95 1018.27 1018.64 1019.06 1019.49 1019.87 1020.17 1020.34
1018.91 1018.80 1018.70 1018.59 1018.47 1018.34 1018.20 1018.08 1018.01 1018.03 1018.18 1018.46 1018.87 1019.38 1019.93 1020.46 1020.89 1021.17 1021.23 1021.08 1020.73 1020.22 1019.63 1019.02 1018.47 1018.03 1017.72 1017.54 1017.47 1017.48 1017.55 1017.64 1017.74 1017.88 1018.06 1018.29 1018.59 1018.96 1019.34 1019.72 1020.03 1020.22 1020.26
1019.19 1019.12 1019.05 1018.98 1018.89 1018.76 1018.60 1018.43 1018.30 1018.25 1018.32 1018.54 1018.93 1019.47 1020.09 1020.74 1021.32 1021.77 1022.01 1022.04 1021.84 1021.45 1020.95 1020.39 1019.85 1019.39 1019.03 1018.78 1018.62 1018.55 1018.52 1018.53 1018.57 1018.65 1018.78 1018.97 1019.23 1019.54 1019.86 1020.14 1020.33 1020.39 1020.28
1019.51 1019.45 1019.42 1019.38 1019.30 1019.18 1018.99 1018.78 1018.58 1018.44 1018.43 1018.59 1018.94 1019.46 1020.12 1020.84 1021.54 1022.13 1022.54 1022.73 1022.70 1022.47 1022.10 1021.65 1021.19 1020.77 1020.43 1020.17 1019.99 1019.87 1019.79 1019.74 1019.72 1019.74 1019.80 1019.93 1020.12 1020.34 1020.56 1020.73 1020.79 1020.70 1020.44
1019.85 1019.82 1019.81 1019.79 1019.73 1019.61 1019.40 1019.15 1018.89 1018.67 1018.58 1018.67 1018.96 1019.44 1020.09 1020.84 1021.59 1022.27 1022.80 1023.13 1023.25 1023.18 1022.97 1022.67 1022.34 1022.03 1021.77 1021.57 1021.41 1021.30 1021.20 1021.12 1021.05 1021.02 1021.02 1021.07 1021.17 1021.30 1021.41 1021.45 1021.38 1021.16 1020.77
1020.22 1020.21 1020.22 1020.22 1020.18 1020.05 1019.84 1019.55 1019.25 1018.98 1018.82 1018.83 1019.04 1019.47 1020.06 1020.78 1021.53 1022.24 1022.82 1023.24 1023.49 1023.56 1023.51 1023.37 1023.20 1023.04 1022.91 1022.81 1022.73 1022.66 1022.59 1022.51 1022.42 1022.34 1022.29 1022.27 1022.28 1022.32 1022.33 1022.27 1022.10 1021.78 1021.30
1020.61 1020.61 1020.63 1020.65 1020.62 1020.50 1020.28 1019.99 1019.67 1019.37 1019.16 1019.10 1019.24 1019.58 1020.09 1020.73 1021.42 1022.09 1022.67 1023.13 1023.44 1023.63 1023.71 1023.74 1023.74 1023.74 1023.76 1023.80 1023.83 1023.84 1023.82 1023.76 1023.68 1023.58 1023.48 1023.41 1023.36 1023.32 1023.26 1023.13 1022.90 1022.54 1022.03
1021.00 1021.01 1021.04 1021.07 1021.04 1020.94 1020.74 1020.46 1020.13 1019.82 1019.59 1019.50 1019.57 1019.81 1020.22 1020.75 1021.34 1021.92 1022.45 1022.89 1023.23 1023.48 1023.67 1023.83 1023.98 1024.15 1024.33 1024.50 1024.65 1024.76 1024.80 1024.79 1024.72 1024.62 1024.51 1024.41 1024.33 1024.25 1024.16 1024.01 1023.77 1023.41 1022.93
1021.38 1021.39 1021.43 1021.46 1021.45 1021.35 1021.18 1020.93 1020.63 1020.34 1020.11 1019.99 1020.01 1020.18 1020.48 1020.88 1021.34 1021.81 1022.24 1022.63 1022.95 1023.23 1023.49 1023.75 1024.03 1024.33 1024.64 1024.93 1025.19 1025.38 1025.50 1025.53 1025.50 1025.41 1025.31 1025.22 1025.13 1025.06 1024.98 1024.85 1024.65 1024.34 1023.93
1021.76 1021.77 1021.81 1021.84 1021.83 1021.76 1021.61 1021.40 1021.15 1020.90 1020.69 1020.57 1020.56 1020.66 1020.87 1021.16 1021.49 1021.83 1022.16 1022.46 1022.75 1023.03 1023.32 1023.64 1023.99 1024.38 1024.78 1025.17 1025.50 1025.76 1025.93 1026.01 1026.01 1025.96 1025.89 1025.82 1025.76 1025.73 1025.69 1025.62 1025.49 1025.27 1024.96
1022.14 1022.16 1022.19 1022.22 1022.21 1022.15 1022.04 1021.88 1021.68 1021.48 1021.32 1021.22 1021.20 1021.26 1021.40 1021.59 1021.81 1022.04 1022.27 1022.49 1022.72 1022.97 1023.25 1023.59 1023.99 1024.42 1024.86 1025.29 1025.66 1025.95 1026.15 1026.26 1026.29 1026.27 1026.24 1026.22 1026.22 1026.24 1026.27 1026.28 1026.23 1026.12 1025.92
1022.55 1022.57 1022.59 1022.62 1022.62 1022.58 1022.50 1022.38 1022.24 1022.10 1021.98 1021.92 1021.91 1021.95 1022.05 1022.17 1022.31 1022.45 1022.59 1022.74 1022.90 1023.11 1023.38 1023.70 1024.09 1024.52 1024.96 1025.38 1025.75 1026.04 1026.24 1026.35 1026.40 1026.42 1026.43 1026.46 1026.52 1026.61 1026.71 1026.80 1026.85 1026.83 1026.73
1022.98 1023.01 1023.04 1023.06 1023.06 1023.04 1022.98 1022.90 1022.82 1022.73 1022.67 1022.65 1022.66 1022.70 1022.77 1022.86 1022.94 1023.02 1023.10 1023.18 1023.30 1023.46 1023.69 1023.98 1024.33 1024.72 1025.11 1025.49 1025.81 1026.07 1026.24 1026.35 1026.41 1026.45 1026.49 1026.57 1026.69 1026.84 1027.02 1027.18 1027.31 1027.37 1027.36
1023.44 1023.48 1023.51 1023.54 1023.55 1023.54 1023.50 1023.46 1023.42 1023.38 1023.36 1023.38 1023.42 1023.47 1023.54 1023.60 1023.65 1023.69 1023.73 1023.78 1023.85 1023.97 1024.15 1024.39 1024.68 1025.00 1025.33 1025.64 1025.89 1026.09 1026.22 1026.31 1026.36 1026.41 1026.48 1026.60 1026.76 1026.97 1027.20 1027.42 1027.60 1027.73 1027.78
1023.89 1023.95 1024.00 1024.03 1024.05 1024.05 1024.04 1024.02 1024.00 1024.01 1024.03 1024.07 1024.14 1024.21 1024.28 1024.34 1024.38 1024.40 1024.42 1024.44 1024.48 1024.57 1024.70 1024.88 1025.10 1025.35 1025.59 1025.82 1026.00 1026.13 1026.21 1026.26 1026.30 1026.35 1026.44 1026.58 1026.77 1027.01 1027.27 1027.53 1027.74 1027.91 1027.99
1024.30 1024.38 1024.44 1024.49 1024.52 1024.53 1024.53 1024.54 1024.55 1024.58 1024.62 1024.70 1024.78 1024.87 1024.95 1025.01 1025.05 1025.07 1025.07 1025.08 1025.11 1025.16 1025.25 1025.38 1025.54 1025.71 1025.87 1026.01 1026.12 1026.18 1026.22 1026.24 1026.26 1026.30 1026.40 1026.55 1026.75 1027.00 1027.26 1027.53 1027.76 1027.93 1028.04
1024.60 1024.71 1024.80 1024.86 1024.90 1024.93 1024.94 1024.96 1024.99 1025.04 1025.11 1025.20 1025.31 1025.41 1025.50 1025.57 1025.62 1025.64 1025.65 1025.65 1025.66 1025.69 1025.75 1025.83 1025.94 1026.04 1026.14 1026.21 1026.26 1026.27 1026.26 1026.26 1026.26 1026.30 1026.39 1026.53 1026.73 1026.96 1027.21 1027.46 1027.67 1027.84 1027.95
1024.77 1024.90 1025.01 1025.09 1025.15 1025.19 1025.22 1025.26 1025.31 1025.38 1025.47 1025.58 1025.69 1025.81 1025.91 1026.00 1026.05 1026.08 1026.09 1026.10 1026.10 1026.12 1026.15 1026.20 1026.26 1026.32 1026.37 1026.39 1026.40 1026.38 1026.35 1026.32 1026.31 1026.34 1026.42 1026.54 1026.71 1026.91 1027.12 1027.33 1027.51 1027.65 1027.74
1024.77 1024.93 1025.06 1025.16 1025.24 1025.30 1025.35 1025.41 1025.48 1025.57 1025.68 1025.81 1025.95 1026.08 1026.19 1026.29 1026.35 1026.39 1026.41 1026.42 1026.42 1026.43 1026.44 1026.47 1026.50 1026.53 1026.54 1026.55 1026.53 1026.50 1026.46 1026.42 1026.41 1026.43 1026.48 1026.58 1026.70 1026.86 1027.02 1027.17 1027.29 1027.39 1027.45
1024.63 1024.81 1024.95 1025.08 1025.17 1025.26 1025.34 1025.42 1025.52 1025.64 1025.78 1025.93 1026.08 1026.23 1026.36 1026.47 1026.54 1026.59 1026.61 1026.62 1026.62 1026.62 1026.62 1026.63 1026.64 1026.66 1026.66 1026.65 1026.63 1026.60 1026.56 1026.53 1026.51 1026.52 1026.56 1026.62 1026.70 1026.79 1026.88 1026.96 1027.02 1027.06 1027.08
Thickness
5761 5761 5758 5757 5757 5755 5754 5753 5753 5753 5752 5751 5752 5752 5751 5750 5749 5748 5744 5741 5739 5737 5736 5735 5733 5731 5730 5729 5728 5727 5726 5725 5723 5721 5720 5718 5717 5716 5715 5714 5713 5712 5711
5759 5758 5757 5756 5756 5755 5754 5753 5753 5752 5752 5752 5751 5751 5750 5750 5748 5747 5746 5743 5740 5738 5737 5735 5733 5731 5730 5729 5728 5727 5725 5724 5723 5721 5719 5718 5716 5715 5714 5713 5712 5712 5711
5757 5757 5756 5756 5755 5755 5753 5753 5752 5752 5751 5751 5750 5750 5749 5748 5749 5747 5746 5745 5743 5740 5738 5736 5734 5732 5731 5729 5728 5727 5725 5724 5723 5721 5719 5717 5716 5715 5713 5712 5711 5711 5710
5756 5756 5756 5756 5754 5755 5754 5753 5752 5751 5750 5750 5749 5750 5749 5747 5747 5747 5746 5745 5744 5743 5740 5737 5735 5733 5731 5730 5729 5727 5726 5724 5723 5721 5719 5717 5715 5714 5713 5712 5711 5710 5709
5757 5757 5757 5756 5755 5755 5754 5754 5753 5751 5749 5748 5749 5748 5748 5747 5746 5746 5746 5745 5743 5743 5742 5739 5736 5734 5732 5731 5729 5728 5726 5724 5722 5720 5718 5716 5715 5714 5712 5711 5710 5709 5708
5757 5757 5757 5756 5756 5755 5753 5752 5750 5749 5748 5747 5749 5748 5748 5748 5747 5746 5746 5745 5743 5742 5742 5740 5737 5735 5732 5730 5729 5727 5726 5724 5722 5720 5718 5716 5714 5713 5711 5710 5709 5708 5706
5758 5757 5758 5756 5755 5754 5752 5752 5751 5748 5747 5747 5745 5744 5745 5747 5746 5745 5745 5745 5744 5742 5741 5739 5738 5737 5734 5730 5728 5727 5725 5723 5721 5720 5718 5716 5714 5713 5711 5709 5708 5706 5705
5758 5758 5756 5756 5755 5753 5751 5750 5748 5748 5748 5748 5745 5742 5739 5740 5741 5745 5744 5743 5742 5742 5741 5739 5737 5735 5734 5732 5729 5727 5724 5722 5721 5719 5717 5715 5714 5712 5710 5709 5707 5705 5704
5758 5757 5756 5755 5754 5754 5751 5750 5748 5747 5746 5747 5748 5744 5739 5737 5738 5740 5741 5741 5740 5739 5739 5738 5737 5734 5732 5731 5729 5725 5723 5721 5719 5717 5716 5714 5712 5711 5710 5708 5706 5705 5703
5758 5757 5756 5754 5753 5753 5751 5750 5750 5748 5746 5745 5746 5746 5745 5744 5737 5734 5736 5738 5737 5736 5737 5737 5736 5733 5730 5728 5725 5723 5720 5718 5717 5715 5713 5712 5711 5710 5708 5706 5705 5703 5702
5758 5757 5755 5753 5752 5752 5750 5749 5748 5747 5747 5746 5745 5744 5742 5741 5740 5735 5730 5732 5734 5735 5734 5733 5732 5731 5728 5726 5723 5720 5717 5715 5714 5712 5711 5710 5708 5707 5706 5705 5703 5702 5701
5759 5757 5755 5753 5751 5751 5749 5748 5747 5746 5746 5744 5743 5743 5741 5739 5737 5736 5732 5729 5728 5730 5731 5730 5729 5727 5725 5723 5720 5717 5714 5712 5711 5709 5708 5707 5706 5705 5704 5703 5702 5701 5700
5759 5756 5755 5751 5750 5749 5748 5747 5745 5745 5744 5742 5741 5741 5741 5740 5739 5736 5733 5730 5726 5726 5726 5726 5725 5723 5722 5719 5716 5713 5711 5709 5707 5706 5704 5703 5702 5701 5700 5699 5698 5698 5697
5760 5757 5754 5751 5749 5748 5748 5746 5745 5744 5742 5740 5740 5738 5738 5737 5737 5735 5732 5728 5722 5721 5722 5720 5721 5719 5717 5715 5712 5709 5707 5705 5703 5701 5699 5698 5697 5696 5695 5694 5694 5693 5693
5760 5756 5753 5751 5748 5746 5745 5744 5742 5741 5740 5739 5738 5737 5736 5735 5734 5734 5732 5730 5724 5717 5715 5715 5715 5715 5713 5711 5707 5706 5704 5700 5698 5696 5695 5693 5692 5691 5689 5688 5687 5687 5687
5758 5755 5752 5749 5746 5744 5743 5741 5740 5739 5737 5736 5734 5733 5732 5733 5731 5730 5729 5728 5726 5721 5714 5714 5711 5710 5708 5707 5702 5701 5699 5695 5692 5690 5689 5687 5686 5684 5683 5682 5680 5680 5679
5756 5753 5750 5747 5744 5742 5740 5738 5738 5736 5735 5733 5732 5731 5728 5727 5727 5726 5725 5724 5722 5719 5712 5709 5708 5706 5702 5700 5698 5696 5694 5692 5688 5685 5683 5680 5679 5677 5676 5674 5673 5671 5671
5755 5751 5748 5745 5743 5740 5738 5736 5734 5733 5731 5730 5728 5727 5725 5724 5721 5721 5720 5718 5717 5714 5710 5704 5702 5700 5697 5695 5693 5691 5690 5688 5684 5679 5676 5674 5671 5670 5668 5666 5665 5663 5662
5753 5750 5746 5743 5740 5738 5735 5733 5731 5729 5727 5726 5724 5722 5720 5718 5716 5715 5714 5714 5712 5711 5707 5702 5698 5694 5692 5690 5688 5686 5684 5681 5680 5675 5671 5667 5665 5663 5661 5658 5657 5655 5654
5749 5746 5743 5740 5737 5734 5732 5729 5727 5724 5722 5720 5718 5716 5715 5713 5711 5710 5709 5707 5706 5704 5701 5699 5694 5691 5687 5684 5682 5680 5677 5675 5673 5671 5665 5662 5658 5656 5653 5651 5649 5647 5645
5746 5743 5739 5736 5733 5730 5727 5725 5722 5720 5717 5714 5712 5710 5708 5705 5703 5703 5703 5701 5699 5698 5696 5694 5689 5685 5681 5677 5676 5676 5672 5669 5666 5664 5661 5658 5655 5651 5647 5643 5640 5637 5635
5740 5737 5734 5730 5727 5724 5719 5717 5716 5714 5711 5708 5705 5704 5702 5699 5696 5694 5692 5690 5690 5689 5688 5686 5683 5678 5674 5673 5670 5670 5667 5664 5659 5657 5655 5652 5650 5646 5642 5637 5631 5628 5626
5733 5730 5727 5724 5720 5715 5711 5709 5707 5707 5705 5702 5700 5698 5697 5694 5692 5690 5686 5683 5682 5679 5678 5678 5675 5671 5669 5667 5664 5663 5659 5657 5653 5651 5647 5644 5641 5638 5633 5628 5623 5620 5617
5727 5724 5721 5718 5714 5708 5704 5702 5700 5701 5699 5696 5693 5691 5689 5687 5685 5683 5682 5679 5677 5673 5671 5670 5667 5664 5662 5659 5657 5656 5652 5649 5646 5643 5640 5636 5633 5630 5627 5621 5615 5612 5609
5721 5718 5715 5711 5708 5703 5697 5695 5693 5695 5692 5689 5686 5684 5681 5679 5675 5674 5675 5672 5669 5666 5662 5659 5657 5655 5652 5650 5648 5649 5646 5644 5640 5637 5632 5629 5625 5622 5619 5615 5608 5604 5601
5715 5712 5708 5705 5702 5698 5691 5689 5687 5691 5687 5684 5680 5676 5671 5669 5666 5665 5666 5663 5660 5658 5656 5654 5650 5647 5645 5642 5640 5639 5638 5636 5634 5629 5624 5620 5618 5614 5611 5608 5603 5599 5595